KD7TTL Weather Reports


Display with metric or nautical units.
time (UTC)temp
F
wind
direction
speed
MPH
gust
MPH
rain 1hr
in
rain 24hr
in
rain mn
in
humidity
%
barometer
mb
20260906070513 52 334 0.0 2.0 0.00 0.01 0.00 90 1017.8
20260906070031 52 68 0.0 1.0 0.00 0.01 0.00 90 1017.9
20260906065513 52 9 0.0 1.0 0.00 0.01 0.01 90 1018.0
20260906065015 52 93 0.0 1.0 0.00 0.01 0.01 90 1018.0
20260906064535 52 93 0.0 1.0 0.00 0.01 0.01 89 1017.9
20260906064021 53 51 0.0 1.0 0.00 0.01 0.01 89 1018.0
20260906063514 53 51 0.0 0.0 0.00 0.01 0.01 89 1018.0
20260906063031 53 9 0.0 1.0 0.00 0.01 0.01 89 1018.0
20260906062515 53 9 0.0 1.0 0.00 0.01 0.01 89 1017.9
20260906062016 53 26 0.0 1.0 0.00 0.01 0.01 89 1017.9
20260906061530 53 325 0.0 1.0 0.00 0.01 0.01 88 1017.9
20260906061015 53 51 0.0 1.0 0.00 0.01 0.01 88 1017.8
20260906060515 54 68 0.0 1.0 0.00 0.01 0.01 89 1017.8
20260906060031 54 309 0.0 1.0 0.00 0.01 0.01 88 1017.8
20260906055514 54 51 0.0 2.0 0.00 0.01 0.01 88 1017.9
20260906055014 54 9 0.0 2.0 0.00 0.01 0.01 88 1017.8
20260906054531 54 93 0.0 1.0 0.00 0.01 0.01 87 1017.8
20260906054016 54 9 0.0 1.0 0.00 0.01 0.01 87 1017.7
20260906053514 55 26 0.0 1.0 0.00 0.01 0.01 87 1017.7
20260906053035 55 265 0.0 1.0 0.00 0.01 0.01 87 1017.7
20260906052515 55 9 0.0 1.0 0.00 0.01 0.01 87 1017.7
20260906052016 55 9 0.0 1.0 0.00 0.01 0.01 86 1017.9
20260906051534 55 51 0.0 1.0 0.00 0.01 0.01 86 1018.0
20260906051012 55 51 0.0 1.0 0.00 0.01 0.01 85 1018.0
20260906050512 56 51 0.0 1.0 0.00 0.01 0.01 86 1018.0
20260906050052 56 9 0.0 1.0 0.00 0.01 0.01 85 1018.0
20260906045517 56 265 0.0 2.0 0.00 0.01 0.01 84 1018.0
20260906045015 56 51 0.0 2.0 0.00 0.01 0.01 84 1018.1
20260906044533 56 9 0.0 2.0 0.00 0.01 0.01 83 1018.2
20260906044018 57 51 0.0 1.0 0.00 0.01 0.01 82 1018.2
20260906043515 57 51 0.0 1.0 0.00 0.01 0.01 82 1018.2
20260906043035 57 51 0.0 1.0 0.00 0.01 0.01 81 1018.2
20260906042518 57 51 0.0 1.0 0.00 0.01 0.01 81 1018.3
20260906042016 58 51 0.0 1.0 0.00 0.01 0.01 81 1018.4
20260906041529 58 9 0.0 1.0 0.00 0.01 0.01 81 1018.3
20260906041017 58 76 0.0 1.0 0.00 0.01 0.01 80 1018.4
20260906040519 59 51 0.0 0.0 0.00 0.01 0.01 79 1018.4
20260906040040 59 51 0.0 1.0 0.00 0.01 0.01 78 1018.3
20260906035516 59 93 0.0 1.0 0.00 0.01 0.01 78 1018.4
20260906035018 59 51 0.0 1.0 0.00 0.01 0.01 77 1018.4
20260906034542 60 51 0.0 1.0 0.00 0.01 0.01 78 1018.4
20260906034017 60 93 0.0 2.0 0.00 0.01 0.01 77 1018.2
20260906033514 61 51 0.0 2.0 0.00 0.01 0.01 76 1018.2
20260906033032 61 51 0.0 1.0 0.00 0.01 0.01 75 1018.0
20260906032514 61 9 0.0 1.0 0.00 0.01 0.01 74 1018.0
20260906032016 62 265 0.0 1.0 0.00 0.02 0.01 73 1018.0
20260906031504 62 93 0.0 1.0 0.00 0.02 0.01 73 1017.9
20260906031003 62 68 0.0 1.0 0.00 0.02 0.01 73 1017.9
20260906030512 63 68 0.0 1.0 0.00 0.03 0.01 73 1017.9
20260906030006 63 51 0.0 2.0 0.00 0.04 0.01 72 1018.0
20260906025504 63 51 0.0 2.0 0.00 0.04 0.01 71 1018.0
20260906025004 64 34 0.0 2.0 0.00 0.04 0.01 71 1018.0
20260906024507 64 9 0.0 1.0 0.00 0.05 0.01 70 1018.0
20260906024003 64 9 0.0 2.0 0.00 0.05 0.01 69 1017.9
20260906023504 65 51 0.0 2.0 0.00 0.05 0.01 69 1017.9
20260906023005 65 51 0.0 1.0 0.00 0.05 0.01 68 1017.9
20260906022502 66 9 0.0 1.0 0.00 0.05 0.01 68 1017.9
20260906022005 66 26 0.0 2.0 0.00 0.05 0.01 68 1017.8
20260906021504 66 9 0.0 2.0 0.00 0.05 0.01 66 1017.8
20260906021003 66 61 0.0 1.0 0.00 0.05 0.01 66 1017.8
20260906020506 67 309 0.0 1.0 0.00 0.05 0.01 65 1017.8
20260906020005 67 309 0.0 1.0 0.00 0.05 0.01 65 1017.8
20260906015504 67 51 0.0 1.0 0.00 0.05 0.01 64 1017.7
20260906015004 67 221 0.0 2.0 0.00 0.05 0.01 62 1017.7
20260906014509 67 34 0.0 2.0 0.00 0.05 0.01 62 1017.6
20260906014003 67 41 1.0 3.0 0.00 0.05 0.01 61 1017.6
20260906013503 67 338 0.0 5.0 0.00 0.05 0.01 59 1017.6
20260906013008 67 291 0.0 5.0 0.00 0.05 0.01 59 1017.6
20260906012503 68 51 0.0 2.0 0.00 0.05 0.01 60 1017.6
20260906012005 68 9 0.0 2.0 0.00 0.05 0.01 63 1017.6
20260906011506 68 51 0.0 2.0 0.00 0.05 0.01 66 1017.6
20260906011003 68 93 0.0 2.0 0.00 0.05 0.01 61 1017.6
20260906010507 69 239 0.0 2.0 0.00 0.05 0.01 57 1017.6
20260906010007 69 30 0.0 2.0 0.00 0.05 0.01 60 1017.6
20260906005503 69 51 0.0 2.0 0.00 0.05 0.01 60 1017.5
20260906005003 69 51 0.0 2.0 0.00 0.05 0.01 54 1017.5
20260906004507 69 93 0.0 3.0 0.00 0.05 0.01 56 1017.5
20260906004004 69 9 1.0 3.0 0.00 0.05 0.01 55 1017.5
20260906003505 69 51 0.0 2.0 0.00 0.05 0.01 54 1017.5
20260906003005 69 338 1.0 2.0 0.00 0.06 0.01 53 1017.5
20260906002502 70 38 0.0 3.0 0.00 0.07 0.01 55 1017.5
20260906002003 70 129 1.0 3.0 0.00 0.14 0.01 53 1017.4
20260906001504 70 178 0.0 3.0 0.00 0.15 0.01 54 1017.4
20260906001004 70 334 1.0 3.0 0.00 0.15 0.01 53 1017.4
20260906000503 70 309 0.0 2.0 0.00 0.15 0.01 53 1017.4
20260906000009 70 51 0.0 3.0 0.00 0.15 0.01 55 1017.4
20260905235505 70 51 0.0 3.0 0.00 0.15 0.01 55 1017.4
20260905235003 70 59 0.0 5.0 0.00 0.15 0.01 55 1017.4
20260905234509 70 93 2.0 5.0 0.00 0.15 0.01 53 1017.5
20260905234007 70 71 1.0 4.0 0.00 0.15 0.01 54 1017.5
20260905233508 70 59 1.0 4.0 0.00 0.15 0.01 55 1017.6
20260905233024 70 51 0.0 4.0 0.00 0.15 0.01 53 1017.6
20260905232510 70 51 1.0 3.0 0.00 0.15 0.01 52 1017.7
20260905232004 70 232 1.0 2.0 0.00 0.15 0.01 53 1017.7
20260905231510 69 93 0.0 4.0 0.00 0.15 0.01 54 1017.7
20260905231006 69 68 0.0 6.0 0.00 0.15 0.01 55 1017.8
20260905230503 69 171 2.0 7.0 0.00 0.15 0.01 55 1017.9
20260905230011 69 150 1.0 7.0 0.00 0.15 0.01 58 1018.0
20260905225505 69 162 1.0 6.0 0.00 0.15 0.01 55 1017.9
20260905225006 70 192 1.0 5.0 0.00 0.15 0.01 53 1018.0
20260905224510 71 9 1.0 3.0 0.00 0.15 0.01 51 1018.0
20260905224005 70 165 1.0 4.0 0.00 0.15 0.01 54 1018.0
20260905223507 70 93 0.0 5.0 0.00 0.15 0.01 54 1018.1
20260905223010 69 325 2.0 7.0 0.00 0.15 0.01 52 1018.1
20260905222506 70 170 3.0 7.0 0.00 0.15 0.01 54 1018.0
20260905222009 71 148 3.0 7.0 0.00 0.15 0.01 53 1018.1
20260905221523 71 51 0.0 6.0 0.00 0.15 0.01 53 1018.1
20260905221008 71 221 2.0 5.0 0.00 0.15 0.01 52 1018.1
20260905220508 70 195 1.0 4.0 0.00 0.15 0.01 54 1018.1
20260905220013 70 101 0.0 8.0 0.00 0.15 0.01 52 1018.1
20260905215506 70 59 2.0 8.0 0.00 0.15 0.01 52 1018.2
20260905215004 70 140 3.0 8.0 0.00 0.15 0.01 53 1018.1
20260905214520 71 137 3.0 7.0 0.00 0.15 0.01 51 1018.1
20260905214006 72 165 4.0 7.0 0.00 0.15 0.01 50 1018.1
20260905213507 73 137 1.0 4.0 0.00 0.15 0.01 50 1018.1
20260905213014 72 51 1.0 4.0 0.00 0.15 0.01 54 1018.1
20260905212507 71 221 1.0 4.0 0.00 0.15 0.01 54 1018.1
20260905212007 71 72 1.0 4.0 0.00 0.15 0.01 52 1018.2
20260905211527 71 72 1.0 4.0 0.00 0.15 0.01 53 1018.3
20260905211008 71 93 1.0 5.0 0.00 0.15 0.01 56 1018.3
20260905210506 70 108 1.0 7.0 0.00 0.15 0.01 59 1018.3
20260905210020 69 243 0.0 8.0 0.00 0.15 0.01 57 1018.4
20260905205508 70 178 2.0 8.0 0.00 0.15 0.01 58 1018.4
20260905205009 71 120 1.0 4.0 0.00 0.15 0.01 57 1018.4
20260905204516 70 51 1.0 5.0 0.00 0.15 0.01 56 1018.4
20260905204005 70 137 2.0 7.0 0.00 0.15 0.01 57 1018.5
20260905203505 70 40 1.0 7.0 0.00 0.15 0.01 58 1018.6
20260905203016 69 18 2.0 7.0 0.00 0.15 0.01 58 1018.5
20260905202506 69 229 2.0 6.0 0.00 0.15 0.01 60 1018.5
20260905202011 69 330 1.0 5.0 0.00 0.15 0.01 56 1018.6
20260905201514 69 265 2.0 6.0 0.00 0.15 0.01 59 1018.6
20260905201005 69 153 2.0 6.0 0.00 0.15 0.01 62 1018.5
20260905200512 68 51 1.0 5.0 0.00 0.15 0.01 61 1018.5
20260905200035 68 74 1.0 3.0 0.00 0.15 0.01 59 1018.6
20260905195506 68 215 1.0 3.0 0.00 0.15 0.01 66 1018.6
20260905195009 68 34 1.0 6.0 0.00 0.15 0.01 62 1018.6
20260905194516 68 48 1.0 7.0 0.00 0.15 0.01 67 1018.7
20260905194006 67 221 0.0 7.0 0.00 0.15 0.01 69 1018.7
20260905193509 66 146 2.0 7.0 0.00 0.15 0.01 64 1018.8
20260905193027 67 80 1.0 4.0 0.00 0.15 0.01 66 1018.9
20260905192510 67 239 1.0 4.0 0.00 0.15 0.01 67 1018.9
20260905192011 67 61 1.0 3.0 0.00 0.15 0.01 65 1018.9
20260905191521 66 162 1.0 4.0 0.00 0.15 0.01 69 1018.9
20260905191007 66 120 0.0 5.0 0.00 0.15 0.01 64 1019.0
20260905190509 66 38 2.0 5.0 0.00 0.15 0.01 66 1019.0
20260905190016 65 54 0.0 5.0 0.00 0.15 0.01 67 1019.0
20260905185510 66 105 1.0 4.0 0.00 0.15 0.01 70 1019.0
20260905185010 65 325 0.0 5.0 0.00 0.15 0.01 70 1019.0
20260905184523 65 221 0.0 5.0 0.00 0.15 0.01 77 1019.1
20260905184008 65 162 0.0 3.0 0.00 0.15 0.01 74 1019.0
20260905183506 64 85 1.0 3.0 0.00 0.15 0.01 80 1019.0
20260905183030 64 30 0.0 3.0 0.00 0.15 0.01 75 1019.2
20260905182510 63 120 0.0 3.0 0.00 0.15 0.01 77 1019.2
20260905182011 62 51 1.0 5.0 0.00 0.15 0.01 78 1019.2
20260905181507 62 102 2.0 5.0 0.00 0.15 0.01 73 1019.3
20260905181002 62 93 0.0 6.0 0.00 0.15 0.01 80 1019.3
20260905180503 61 141 0.0 6.0 0.00 0.15 0.01 75 1019.3
20260905180007 61 178 2.0 6.0 0.00 0.15 0.01 76 1019.3
20260905175503 61 146 4.0 8.0 0.00 0.15 0.01 77 1019.3
20260905175003 61 142 2.0 8.0 0.00 0.15 0.01 76 1019.3
20260905174516 60 157 3.0 6.0 0.00 0.15 0.01 77 1019.3
20260905174002 60 133 2.0 5.0 0.00 0.15 0.01 81 1019.2
20260905173504 60 120 2.0 5.0 0.00 0.16 0.01 81 1019.2
20260905173003 59 265 1.0 5.0 0.00 0.16 0.01 84 1019.2
20260905172506 59 159 2.0 6.0 0.00 0.16 0.01 79 1019.2
20260905172011 59 134 2.0 6.0 0.00 0.16 0.01 83 1019.2
20260905171511 59 178 2.0 5.0 0.00 0.16 0.01 82 1019.2
20260905171009 59 93 0.0 4.0 0.00 0.16 0.01 87 1019.2
20260905170506 58 9 0.0 4.0 0.00 0.16 0.01 86 1019.2
20260905170012 58 68 0.0 2.0 0.00 0.16 0.01 87 1019.3
20260905165506 57 76 0.0 2.0 0.00 0.16 0.01 87 1019.3
20260905165005 57 232 0.0 3.0 0.00 0.16 0.01 92 1019.2
20260905164512 56 68 1.0 3.0 0.00 0.16 0.01 89 1019.2
20260905164007 55 178 0.0 3.0 0.00 0.16 0.01 91 1019.2
20260905163507 55 165 0.0 2.0 0.00 0.16 0.01 93 1019.1
20260905163015 54 68 0.0 4.0 0.00 0.16 0.01 93 1019.1
20260905162506 54 51 1.0 4.0 0.00 0.16 0.01 93 1019.0
20260905162006 53 156 1.0 4.0 0.00 0.16 0.01 95 1019.0
20260905161511 52 137 0.0 4.0 0.00 0.16 0.01 96 1019.0
20260905161004 52 178 1.0 4.0 0.00 0.16 0.01 96 1019.1
20260905160508 51 51 0.0 2.0 0.00 0.16 0.01 96 1019.1
20260905160027 51 68 0.0 1.0 0.00 0.16 0.01 96 1019.1
20260905155507 50 34 0.0 2.0 0.00 0.16 0.01 96 1019.1
20260905155007 50 120 0.0 2.0 0.00 0.16 0.01 96 1019.1
20260905154512 50 93 0.0 2.0 0.00 0.16 0.01 96 1019.1
20260905154006 50 68 0.0 3.0 0.00 0.16 0.01 96 1019.0
20260905153506 49 93 0.0 3.0 0.00 0.16 0.01 96 1019.0
20260905153016 49 137 0.0 2.0 0.00 0.16 0.01 96 1019.0
20260905152508 48 76 0.0 2.0 0.00 0.16 0.01 96 1019.0
20260905152012 48 51 0.0 1.0 0.00 0.16 0.01 95 1018.9
20260905151516 48 68 0.0 1.0 0.00 0.16 0.01 95 1019.0
20260905151010 48 93 0.0 1.0 0.00 0.16 0.01 95 1018.9
20260905150507 48 93 0.0 2.0 0.00 0.16 0.01 95 1018.9
20260905150024 47 26 1.0 2.0 0.00 0.16 0.01 95 1018.9
20260905145510 47 61 0.0 2.0 0.00 0.16 0.01 95 1018.8
20260905145007 47 51 0.0 2.0 0.00 0.16 0.01 95 1018.8
20260905144536 47 61 0.0 2.0 0.00 0.16 0.01 95 1018.8
20260905144012 47 61 0.0 2.0 0.00 0.16 0.01 94 1018.9
20260905143507 47 93 0.0 2.0 0.00 0.16 0.01 94 1018.8
20260905143022 47 68 0.0 1.0 0.00 0.16 0.01 94 1018.8
20260905142508 47 51 0.0 1.0 0.00 0.16 0.01 94 1018.8
20260905142012 47 34 0.0 1.0 0.00 0.16 0.01 94 1018.8
20260905141520 47 93 0.0 1.0 0.00 0.16 0.01 94 1018.7
20260905141009 47 51 0.0 1.0 0.00 0.16 0.01 94 1018.7
20260905140507 47 68 0.0 1.0 0.00 0.16 0.01 94 1018.6
20260905140016 48 68 0.0 1.0 0.00 0.16 0.01 94 1018.6
20260905135512 48 137 0.0 1.0 0.00 0.16 0.01 94 1018.6
20260905135007 48 68 0.0 1.0 0.00 0.16 0.01 94 1018.4
20260905134523 48 51 0.0 1.0 0.00 0.16 0.01 94 1018.4
20260905134006 48 34 0.0 1.0 0.00 0.16 0.01 94 1018.4
20260905133512 48 51 0.0 1.0 0.00 0.16 0.01 94 1018.4
20260905133031 48 9 0.0 1.0 0.00 0.16 0.01 94 1018.4
20260905132513 48 51 0.0 1.0 0.00 0.16 0.01 94 1018.4
20260905132009 48 76 0.0 1.0 0.00 0.16 0.01 94 1018.4
20260905131544 48 93 0.0 1.0 0.00 0.16 0.01 94 1018.4
20260905131010 48 68 0.0 1.0 0.00 0.16 0.01 94 1018.4
20260905130507 48 51 0.0 1.0 0.00 0.16 0.01 94 1018.4
20260905130026 48 68 0.0 1.0 0.00 0.16 0.01 94 1018.4
20260905125508 48 51 0.0 1.0 0.00 0.16 0.01 94 1018.4
20260905125010 49 51 0.0 1.0 0.00 0.16 0.01 94 1018.4
20260905124523 49 51 0.0 1.0 0.00 0.16 0.01 94 1018.4
20260905124008 49 68 0.0 1.0 0.00 0.16 0.01 94 1018.3
20260905123510 49 51 0.0 1.0 0.00 0.16 0.01 94 1018.3
20260905123030 49 68 0.0 1.0 0.00 0.16 0.01 94 1018.4
20260905122511 49 51 0.0 1.0 0.00 0.16 0.01 94 1018.4
20260905122010 49 68 0.0 1.0 0.00 0.16 0.01 94 1018.4
20260905121523 49 51 0.0 2.0 0.00 0.16 0.01 94 1018.4
20260905121009 49 51 0.0 2.0 0.00 0.16 0.01 94 1018.4
20260905120512 49 61 0.0 1.0 0.00 0.16 0.01 94 1018.3
20260905120028 49 68 0.0 1.0 0.00 0.16 0.01 94 1018.3
20260905115512 49 76 0.0 2.0 0.00 0.16 0.01 94 1018.3
20260905115014 49 61 0.0 2.0 0.00 0.16 0.01 94 1018.2
20260905114530 49 34 0.0 2.0 0.00 0.16 0.01 94 1018.1
20260905114011 49 68 0.0 2.0 0.00 0.16 0.01 94 1018.1
20260905113511 49 67 0.0 1.0 0.00 0.16 0.01 94 1018.2
20260905113023 50 67 0.0 1.0 0.00 0.16 0.01 94 1018.1
20260905112510 50 34 0.0 2.0 0.00 0.16 0.01 94 1018.1
20260905112015 50 68 0.0 2.0 0.00 0.16 0.01 94 1018.1
20260905111526 50 68 0.0 1.0 0.00 0.16 0.01 94 1018.1
20260905111011 50 51 0.0 1.0 0.00 0.16 0.01 94 1018.0
20260905110512 50 68 0.0 1.0 0.00 0.16 0.01 94 1018.1
20260905110027 50 51 0.0 1.0 0.00 0.16 0.01 94 1018.1
20260905105510 50 51 0.0 1.0 0.00 0.16 0.01 94 1018.1
20260905105010 50 51 0.0 1.0 0.00 0.16 0.01 94 1018.1
20260905104533 50 76 0.0 2.0 0.00 0.16 0.01 94 1018.1
20260905104012 50 51 0.0 2.0 0.00 0.16 0.01 94 1018.1
20260905103512 50 51 0.0 1.0 0.00 0.16 0.01 94 1018.1
20260905103033 50 51 0.0 1.0 0.01 0.16 0.01 94 1018.1
20260905102512 50 51 0.0 1.0 0.01 0.16 0.01 94 1018.1
20260905102010 50 76 0.0 1.0 0.01 0.16 0.01 94 1018.1
20260905101525 50 93 0.0 1.0 0.01 0.16 0.01 94 1018.1
20260905101011 50 9 0.0 1.0 0.01 0.16 0.01 94 1018.1
20260905100511 51 51 0.0 1.0 0.01 0.16 0.01 94 1018.1
20260905100026 51 51 0.0 1.0 0.01 0.16 0.01 94 1018.1
20260905095515 51 68 0.0 1.0 0.01 0.16 0.01 94 1018.1
20260905095014 51 34 0.0 1.0 0.01 0.16 0.01 94 1018.1
20260905094524 51 34 0.0 1.0 0.01 0.16 0.01 94 1018.0
20260905094010 51 68 0.0 1.0 0.01 0.16 0.01 94 1018.0
20260905093511 51 51 0.0 1.0 0.01 0.16 0.01 94 1017.9
20260905093033 51 51 0.0 1.0 0.00 0.15 0.00 94 1017.9
20260905092516 51 34 0.0 1.0 0.00 0.15 0.00 94 1017.9
20260905092013 51 93 0.0 1.0 0.00 0.15 0.00 94 1017.8
20260905091529 51 68 0.0 1.0 0.00 0.15 0.00 94 1017.8
20260905091011 51 9 0.0 1.0 0.00 0.15 0.00 94 1017.8
20260905090513 51 51 0.0 1.0 0.00 0.15 0.00 94 1017.8
20260905090031 51 51 0.0 1.0 0.00 0.15 0.00 94 1017.8
20260905085516 51 93 0.0 1.0 0.00 0.15 0.00 94 1017.8
20260905085012 51 68 0.0 1.0 0.00 0.15 0.00 94 1017.8
20260905084530 51 34 0.0 1.0 0.00 0.15 0.00 94 1017.7
20260905084015 51 51 0.0 1.0 0.00 0.15 0.00 94 1017.7
20260905083515 51 51 0.0 1.0 0.00 0.15 0.00 94 1017.6
20260905083028 51 34 0.0 1.0 0.00 0.15 0.00 94 1017.5
20260905082513 51 51 0.0 1.0 0.00 0.15 0.00 94 1017.5
20260905082014 51 51 0.0 1.0 0.00 0.15 0.00 94 1017.6
20260905081529 51 51 0.0 1.0 0.00 0.15 0.00 94 1017.5
20260905081013 51 51 0.0 1.0 0.00 0.15 0.00 94 1017.5
20260905080512 51 51 0.0 1.0 0.00 0.15 0.00 94 1017.5
20260905080038 51 51 0.0 1.0 0.00 0.15 0.00 94 1017.4
20260905075512 51 93 0.0 1.0 0.00 0.15 0.00 94 1017.4
20260905075013 51 51 0.0 1.0 0.00 0.15 0.00 94 1017.3
20260905074539 51 9 0.0 1.0 0.00 0.15 0.00 94 1017.3
20260905074014 51 68 0.0 1.0 0.00 0.15 0.00 94 1017.3
20260905073515 51 51 0.0 1.0 0.00 0.15 0.00 94 1017.2
20260905073042 51 34 0.0 1.0 0.00 0.15 0.00 94 1017.2
20260905072515 51 51 0.0 2.0 0.00 0.15 0.00 94 1017.2
20260905072012 52 119 0.0 2.0 0.00 0.15 0.00 94 1017.2
20260905071532 52 93 0.0 1.0 0.00 0.15 0.00 93 1017.1
20260905071013 52 51 0.0 1.0 0.00 0.15 0.00 93 1017.1